[[{"header":{"parameterUnit":"m.s-1","parameterCategory":1,"la1":30.2991,"la2":30.254,"lo1":-89.0895,"lo2":-89.0444,"dy":0.0017,"dx":0.0017,"nx":28,"ny":28,"refTime":"2024-09-25T21:00:00:Z","depth":0,"parameterNumber":2,"parameterNumberName":"U-component_of_WINDS"},"data":[0,0,0,0,0,0,0,0,0,0,0,0,0,0,0,0,0,0,0,0,0,0,0,0,0,0,0,0,0,0,0,0,0,0,0,0,0,0,0,0,0,0,0,0,0,0,0,0,0,0,0,0,0,0,0,0,0,0,-1.2373,-1.2373,0,-1.2337,-1.2336,-1.2336,-1.2319,-1.2319,-1.2319,-1.2319,-1.2279,-1.2278,-1.2276,0,0,0,0,0,0,0,0,0,0,0,0,0,-1.2427,-1.2426,-1.2373,-1.2373,-1.2373,-1.2337,-1.2336,-1.2336,-1.2319,-1.2319,-1.2319,-1.2319,-1.2279,-1.2278,-1.2276,0,0,0,0,0,0,0,0,0,0,0,0,0,-1.2398,-1.2426,-1.2374,-1.236,-1.2358,-1.2337,-1.2336,-1.2335,-1.2319,-1.2319,-1.2319,-1.2319,-1.2279,-1.2278,-1.2276,-1.2265,0,0,-1.2271,-1.227,0,0,0,0,0,0,0,0,-1.24,-1.2396,-1.2362,-1.2361,-1.2359,-1.2332,-1.234,-1.2312,-1.2319,-1.2334,-1.2319,-1.2319,-1.2296,-1.2293,-1.2286,-1.2263,-1.2261,-1.2271,-1.227,-1.2269,-1.2269,0,0,0,0,0,0,0,-1.2402,-1.2398,-1.2359,-1.2362,-1.236,-1.2355,-1.2351,-1.2335,-1.2315,-1.2332,-1.2331,-1.2327,-1.2295,-1.2288,-1.2285,-1.2261,-1.2271,-1.227,-1.2269,-1.2268,-1.2227,-1.2227,0,0,0,0,0,0,-1.2407,-1.24,-1.236,-1.2358,-1.238,-1.2354,-1.2349,-1.2341,-1.2315,-1.2311,-1.2327,-1.2326,-1.2291,-1.2287,-1.2284,-1.2269,-1.2269,-1.2268,-1.2267,-1.2227,-1.2227,-1.2226,0,0,0,0,0,0,-1.2408,-1.2403,-1.2361,-1.2378,-1.2373,-1.2353,-1.2343,-1.234,-1.2332,-1.2311,-1.2307,-1.2323,-1.229,-1.2286,-1.227,-1.2267,-1.2267,-1.2266,-1.2227,-1.2227,-1.2227,-1.2239,0,0,0,0,0,0,-1.241,-1.2404,-1.24,-1.2378,-1.2372,-1.2349,-1.2343,-1.2339,-1.233,-1.2329,-1.2306,-1.2303,-1.229,-1.2272,-1.2268,-1.2265,-1.2264,-1.2227,-1.2227,-1.2227,-1.2239,-1.2239,-1.224,0,0,0,0,0,-1.2411,-1.2404,-1.24,-1.2395,-1.2366,-1.2349,-1.2345,-1.2331,-1.233,-1.2325,-1.2312,-1.2303,-1.2268,-1.2271,-1.2266,-1.2262,-1.2227,-1.2227,-1.2227,-1.2239,-1.2239,-1.224,0,0,0,0,0,0,-1.2425,-1.2401,-1.2396,-1.2382,-1.2367,-1.2346,-1.234,-1.2332,-1.2318,-1.2317,-1.23,-1.2295,-1.2281,-1.227,-1.2273,-1.225,-1.2247,-1.2246,-1.2258,-1.2258,-1.2259,-1.2261,-1.2263,0,0,0,0,0,-1.2426,-1.2415,-1.2394,-1.2383,-1.2377,-1.236,-1.2351,-1.2342,-1.2327,-1.232,-1.2305,-1.229,-1.2276,-1.2266,-1.2252,-1.2237,-1.2232,-1.2232,-1.2233,-1.2233,-1.2232,-1.2224,-1.2224,-1.2226,-1.2226,-1.2226,0,0,-1.2428,-1.2414,-1.2408,-1.2386,-1.2374,-1.2362,-1.2355,-1.2342,-1.2332,-1.2318,-1.2302,-1.2291,-1.2273,-1.2257,-1.225,-1.2248,-1.2231,-1.2233,-1.2234,-1.2232,-1.2224,-1.2224,-1.2223,-1.2226,-1.2226,-1.2226,0,0,-1.2427,-1.2415,-1.2405,-1.2393,-1.2376,-1.2364,-1.2362,-1.2342,-1.2334,-1.2318,-1.2307,-1.2295,-1.2271,-1.2258,-1.2249,-1.2243,-1.2235,-1.2239,-1.2241,-1.2233,-1.2233,-1.2233,-1.2231,-1.223,-1.2238,-1.2238,-1.2238,0,-1.2432,-1.2414,-1.24,-1.2389,-1.2379,-1.2367,-1.2356,-1.2345,-1.2323,-1.2317,-1.2315,-1.2284,-1.2271,-1.2253,-1.2251,-1.2244,-1.224,-1.2241,-1.2234,-1.2234,-1.2234,-1.2231,-1.2231,-1.2238,-1.2238,-1.2238,-1.2238,0,-1.2421,-1.2408,-1.2402,-1.2383,-1.2372,-1.2361,-1.2346,-1.2337,-1.2329,-1.2318,-1.2302,-1.2285,-1.2268,-1.2263,-1.2254,-1.2243,-1.2243,-1.2238,-1.2234,-1.2234,-1.2232,-1.2231,-1.2239,-1.2239,-1.2239,-1.2239,0,0,-1.2426,-1.24,-1.2397,-1.2389,-1.2368,-1.2358,-1.2346,-1.233,-1.2323,-1.2308,-1.2297,-1.2277,-1.2273,-1.2262,-1.2252,-1.2245,-1.2242,-1.2241,-1.224,-1.2242,-1.2229,-1.2233,-1.2232,-1.2237,-1.2236,-1.2236,-1.223,0,-1.2421,-1.24,-1.2388,-1.2372,-1.236,-1.2349,-1.2338,-1.2325,-1.2314,-1.2302,-1.229,-1.2276,-1.2271,-1.2265,-1.2257,-1.2244,-1.2239,-1.2244,-1.2226,-1.2226,-1.2231,-1.2231,-1.2234,-1.223,-1.2229,-1.2229,-1.2229,0,-1.2413,-1.24,-1.2383,-1.2364,-1.2359,-1.235,-1.2334,-1.2323,-1.2307,-1.23,-1.2288,-1.2278,-1.2265,-1.2263,-1.2244,-1.2248,-1.224,-1.2232,-1.2232,-1.2229,-1.2227,-1.2228,-1.2228,-1.2227,-1.2228,-1.2228,-1.2228,0,-1.2418,-1.2396,-1.2383,-1.2376,-1.2354,-1.2348,-1.2339,-1.2323,-1.2314,-1.23,-1.2293,-1.2278,-1.2269,-1.2257,-1.2243,-1.2242,-1.2225,-1.2222,-1.2218,-1.2219,-1.2215,-1.2215,-1.2213,-1.221,-1.221,-1.221,-1.221,0,-1.2414,-1.2404,-1.2385,-1.2377,-1.2366,-1.2352,-1.2341,-1.233,-1.2316,-1.2306,-1.2294,-1.2284,-1.2267,-1.2254,-1.2243,-1.223,-1.2226,-1.2219,-1.2216,-1.222,-1.2221,-1.2214,-1.2214,-1.221,-1.221,-1.221,-1.221,0,-1.2418,-1.2405,-1.239,-1.2371,-1.2366,-1.2359,-1.2342,-1.2333,-1.2323,-1.2309,-1.2305,-1.2288,-1.2273,-1.2258,-1.2238,-1.223,-1.2217,-1.2213,-1.2222,-1.2221,-1.2218,-1.2219,-1.2212,-1.221,-1.2208,-1.2208,-1.2208,0,-1.2416,-1.2409,-1.2389,-1.2382,-1.2373,-1.2361,-1.2352,-1.2338,-1.2329,-1.231,-1.2304,-1.2289,-1.2275,-1.2252,-1.2237,-1.2222,-1.2217,-1.2216,-1.2215,-1.2219,-1.2217,-1.2218,-1.2217,-1.2216,-1.2217,-1.2217,-1.2217,0,-1.2415,-1.2409,-1.2397,-1.2382,-1.2372,-1.236,-1.2347,-1.2342,-1.2325,-1.2316,-1.2301,-1.2291,-1.2271,-1.2255,-1.2238,-1.2228,-1.2219,-1.2217,-1.2216,-1.2219,-1.2225,-1.2222,-1.2224,-1.2217,-1.2217,-1.2217,-1.2217,-1.2217,-1.2415,-1.2408,-1.2394,-1.2381,-1.237,-1.2358,-1.235,-1.2338,-1.2326,-1.2309,-1.2301,-1.2286,-1.2271,-1.2247,-1.2237,-1.2225,-1.2222,-1.222,-1.2219,-1.2219,-1.222,-1.2227,-1.2221,-1.2221,-1.2221,-1.2221,-1.2221,0,-1.2413,-1.2403,-1.2392,-1.2375,-1.2365,-1.2359,-1.2344,-1.2336,-1.2323,-1.231,-1.2298,-1.2281,-1.2266,-1.225,-1.2234,-1.2228,-1.2223,-1.2224,-1.2224,-1.2222,-1.2223,-1.2226,-1.2228,-1.2228,-1.2228,-1.2228,-1.2228,-1.2228,-1.2411,-1.2398,-1.2391,-1.2373,-1.2363,-1.2349,-1.2341,-1.233,-1.232,-1.2302,-1.229,-1.228,-1.2265,-1.2249,-1.2235,-1.223,-1.2225,-1.2227,-1.2221,-1.2222,-1.2222,-1.2221,-1.2224,-1.2226,-1.2226,-1.2221,-1.2221,-1.2221]},{"header":{"parameterUnit":"m.s-1","parameterCategory":1,"la1":30.2991,"la2":30.254,"lo1":-89.0895,"lo2":-89.0444,"dy":0.0017,"dx":0.0017,"nx":28,"ny":28,"refTime":"2024-09-25T21:00:00:Z","depth":0,"parameterNumber":3,"parameterNumberName":"V-component_of_WINDS"},"data":[0,0,0,0,0,0,0,0,0,0,0,0,0,0,0,0,0,0,0,0,0,0,0,0,0,0,0,0,0,0,0,0,0,0,0,0,0,0,0,0,0,0,0,0,0,0,0,0,0,0,0,0,0,0,0,0,0,0,0.8629,0.8628,0,0.8544,0.8543,0.8542,0.8515,0.8516,0.8516,0.8516,0.8423,0.8421,0.8418,0,0,0,0,0,0,0,0,0,0,0,0,0,0.8763,0.876,0.8629,0.8628,0.8627,0.8544,0.8543,0.8541,0.8515,0.8516,0.8516,0.8517,0.8424,0.8421,0.8417,0,0,0,0,0,0,0,0,0,0,0,0,0,0.8694,0.876,0.8629,0.8604,0.8601,0.8544,0.8543,0.8541,0.8515,0.8516,0.8516,0.8517,0.8425,0.8421,0.8417,0.8377,0,0,0.8404,0.8402,0,0,0,0,0,0,0,0,0.8698,0.8689,0.8609,0.8606,0.8602,0.8541,0.8555,0.8486,0.8515,0.8547,0.8516,0.8517,0.8462,0.8454,0.8437,0.8373,0.8369,0.8403,0.8401,0.8399,0.8398,0,0,0,0,0,0,0,0.8702,0.8692,0.8595,0.8607,0.8603,0.8595,0.8586,0.8542,0.8502,0.8545,0.8543,0.8533,0.846,0.8441,0.8434,0.8368,0.8404,0.84,0.8397,0.8395,0.8264,0.8263,0,0,0,0,0,0,0.8712,0.8696,0.8598,0.8592,0.8652,0.8592,0.8582,0.856,0.8502,0.8494,0.8533,0.8532,0.8448,0.8439,0.8431,0.8378,0.8399,0.8395,0.8392,0.8265,0.8264,0.8263,0,0,0,0,0,0,0.8715,0.8704,0.8601,0.8644,0.863,0.8589,0.8564,0.8558,0.8539,0.8493,0.8485,0.8521,0.8448,0.8437,0.8391,0.8375,0.8393,0.8389,0.8266,0.8264,0.8263,0.8275,0,0,0,0,0,0,0.8719,0.8705,0.8691,0.8644,0.8628,0.8564,0.8564,0.8556,0.8532,0.8531,0.848,0.8473,0.8448,0.8397,0.8386,0.8369,0.8386,0.8267,0.8265,0.8264,0.8276,0.8274,0.8273,0,0,0,0,0,0.8724,0.8697,0.8691,0.8679,0.861,0.8564,0.8554,0.8528,0.8531,0.8515,0.8486,0.8474,0.8379,0.8393,0.838,0.8362,0.8268,0.8266,0.8264,0.8276,0.8274,0.8273,0,0,0,0,0,0,0.8743,0.8691,0.8683,0.864,0.8607,0.8559,0.8539,0.8527,0.8491,0.8491,0.8458,0.8447,0.8402,0.8377,0.8394,0.8319,0.8323,0.8318,0.8336,0.8334,0.8333,0.8339,0.8382,0,0,0,0,0,0.8742,0.8711,0.8666,0.8633,0.8617,0.8581,0.856,0.8542,0.8505,0.849,0.8457,0.842,0.8382,0.8357,0.8319,0.8273,0.8259,0.8253,0.8252,0.8251,0.8247,0.8217,0.8213,0.8256,0.8256,0.8256,0,0,0.874,0.8708,0.869,0.8636,0.8608,0.8573,0.8569,0.8533,0.8507,0.8484,0.8438,0.8413,0.8369,0.8322,0.8299,0.83,0.8232,0.8249,0.8248,0.8244,0.8215,0.8211,0.8207,0.8255,0.8255,0.8255,0,0,0.8718,0.8692,0.866,0.8632,0.859,0.8566,0.8559,0.8513,0.8495,0.8449,0.8431,0.8398,0.8333,0.8302,0.8277,0.8242,0.8229,0.8231,0.8222,0.8194,0.819,0.8187,0.8172,0.8167,0.8227,0.8227,0.8227,0,0.872,0.867,0.8645,0.861,0.8585,0.8565,0.8531,0.8504,0.8451,0.8434,0.8436,0.8352,0.8322,0.8265,0.8257,0.8239,0.8226,0.8235,0.8193,0.819,0.8186,0.8171,0.8166,0.8227,0.8227,0.8227,0.8227,0,0.8673,0.8638,0.8617,0.8568,0.8541,0.8507,0.8474,0.845,0.8434,0.8409,0.8361,0.8323,0.8276,0.8262,0.8247,0.8203,0.8204,0.82,0.8203,0.8183,0.8168,0.8162,0.8228,0.8228,0.8227,0.8227,0,0,0.8661,0.8597,0.859,0.8566,0.8517,0.8489,0.8452,0.8408,0.8386,0.835,0.8316,0.8261,0.8257,0.8229,0.821,0.8185,0.8156,0.8184,0.8182,0.8178,0.8102,0.8103,0.8097,0.8148,0.8147,0.8146,0.8104,0,0.8631,0.8567,0.8542,0.8489,0.8454,0.8434,0.8401,0.8367,0.8342,0.8307,0.828,0.824,0.8239,0.8222,0.8197,0.8165,0.814,0.8168,0.8113,0.8111,0.8122,0.809,0.8092,0.8054,0.8099,0.8098,0.8097,0,0.8588,0.8552,0.8496,0.8449,0.8434,0.8405,0.8361,0.8329,0.8288,0.8272,0.8241,0.8222,0.818,0.8187,0.8127,0.8147,0.8123,0.8104,0.8101,0.8093,0.8101,0.8078,0.8042,0.8035,0.8088,0.8089,0.8089,0,0.8581,0.8519,0.8476,0.8457,0.8402,0.8382,0.8358,0.8318,0.8292,0.8253,0.8235,0.8191,0.8167,0.8132,0.8101,0.811,0.8042,0.8048,0.8025,0.8025,0.801,0.8011,0.7967,0.7999,0.7999,0.7999,0.7999,0,0.855,0.8515,0.8472,0.8446,0.8405,0.8376,0.8336,0.8311,0.8275,0.8241,0.8221,0.8189,0.8151,0.8114,0.8089,0.8041,0.8031,0.8014,0.8007,0.8014,0.8016,0.7996,0.7997,0.7998,0.7998,0.7998,0.7998,0,0.8535,0.8506,0.8457,0.8409,0.8396,0.8368,0.8326,0.8298,0.8273,0.8229,0.8218,0.8177,0.8131,0.8098,0.8039,0.8022,0.7969,0.7964,0.7984,0.798,0.7958,0.7959,0.7898,0.7886,0.7929,0.7929,0.7928,0,0.8516,0.8489,0.8438,0.8414,0.8391,0.8353,0.8326,0.8296,0.8269,0.8219,0.8196,0.815,0.811,0.8038,0.8001,0.7955,0.7947,0.7928,0.794,0.7946,0.7943,0.7944,0.7939,0.7926,0.7926,0.7926,0.7925,0,0.8484,0.847,0.8434,0.8391,0.836,0.8324,0.8289,0.827,0.8233,0.8202,0.8156,0.8126,0.8066,0.8018,0.7968,0.7941,0.7925,0.7923,0.7914,0.792,0.7931,0.7921,0.7976,0.7923,0.7924,0.7924,0.7924,0.7924,0.8464,0.8438,0.8398,0.8356,0.8326,0.8293,0.8263,0.8234,0.8196,0.8145,0.8129,0.808,0.8037,0.7968,0.794,0.79,0.79,0.7889,0.7885,0.7882,0.7881,0.794,0.7891,0.7891,0.7891,0.7891,0.7891,0,0.8429,0.8402,0.8364,0.8315,0.8281,0.8272,0.8231,0.8203,0.8161,0.8123,0.8085,0.803,0.7984,0.7943,0.7894,0.7869,0.7861,0.7857,0.7857,0.785,0.7885,0.7896,0.7865,0.7865,0.7865,0.7865,0.7865,0.7865,0.8406,0.8361,0.8342,0.8279,0.8252,0.8205,0.8182,0.815,0.8119,0.8059,0.802,0.7995,0.7955,0.7902,0.7858,0.7847,0.7828,0.7826,0.7813,0.7845,0.7848,0.7851,0.7861,0.7823,0.7823,0.7781,0.778,0.778]}]]